{"data":{"norad_id":62400,"intl_designator":"2024-247Z","name":"XCUBE-1","alt_names":[],"object_type":"PAYLOAD","status":"ACTIVE","operator":null,"country":"US","launch_date":"2024-12-21","launch_site_code":"AFWTR","launch_vehicle":null,"mission":null,"orbit_class":"UNKNOWN","rcs_meters":null,"size_class":null,"mass_kg":null,"dimensions":null,"purposes":[],"wikipedia_slug":null,"has_3d_model":false,"image_url":null,"decayed_at":null,"tle_current":{"epoch":"2026-05-24T22:36:31.402368Z","epoch_age_seconds":80073,"freshness":"FRESH","line1":"1 62400U 24247Z   26144.94203012  .00007009  00000+0  25302-3 0  9999","line2":"2 62400  44.9981  59.6981 0002790  73.0621 287.0568 15.29186725 79406","mean_motion":15.29186725,"eccentricity":0.000279,"inclination_deg":44.9981,"raan_deg":59.6981,"arg_perigee_deg":73.0621,"mean_anomaly_deg":287.0568,"bstar":0.00025302,"rev_number":7940,"period_min":94.1677021163,"perigee_km":476.3292666219,"apogee_km":480.1551262135,"semimajor_km":6856.3791964177,"source":"CELESTRAK","updated_at":"2026-05-25T13:38:02.970097Z"}}}